Weather History for Wager Bay, NT

Change the Weather History Date:

Friday, November 2, 2012

  Actual Average Record
Temperature  
Mean Temperature 2 °F -  
Max Temperature 7 °F - - ()
Min Temperature -4 °F - - ()
Degree Days  
Heating Degree Days 64    
Moisture  
Dew Point -3 °F    
Average Humidity 74    
Maximum Humidity 83    
Minimum Humidity 52    
Precipitation  
Precipitation 0.13 in - - ()
Sea Level Pressure  
Sea Level Pressure 30.20 in    
Wind  
Wind Speed 6 mph ()    
Max Wind Speed 15 mph    
Max Gust Speed -    
T = Trace of Precipitation, MM = Missing Value Source: Averaged Metar Reports

Daily Weather History Graph

Daily Weather History Graph

Search for Another Location

Airport:

Trip Planner

Search our weather history database for the weather conditions in past years. The results will help you decide how hot, cold, wet, or windy it might be!

Date:

Astronomy

Nov. 02, 2012 Rise Set
Actual Time 7:57 AM MDT 3:23 PM MDT
Civil Twilight 6:59 AM MDT 4:22 PM MDT
Nautical Twilight 5:57 AM MDT 5:23 PM MDT
Astronomical Twilight 4:58 AM MDT 6:22 PM MDT
Moon 5:00 PM MDT (11/2) 12:30 PM MDT (11/2)
Length of Visible Light 9h 23m
Length of Day
7h 25m
Waning Gibbous, 87% of the Moon is Illuminated
Nov 2
Waning Gibbous
Nov 6
Last Quarter
Nov 13
New
Nov 20
First Quarter
Nov 28
Full

Hourly Weather History & Observations

Time (MDT) Temp. Windchill Dew Point Humidity Pressure Visibility Wind Dir Wind Speed Gust Speed Precip Events Conditions
12:00 AM 2 °F - -4 °F 63% 30.27 in - NW 2.3 mph - -  
12:00 AM 2.3 °F - -4.4 °F 74% 30.27 in - NW 2.3 mph - N/A   Unknown
1:00 AM 3.6 °F -12.6 °F -2.0 °F 78% 30.26 in - NNW 11.5 mph - N/A   Unknown
2:00 AM 1.2 °F -16.4 °F -4.5 °F 77% 30.26 in - NNW 12.7 mph - N/A   Unknown
3:00 AM -1.5 °F -13.3 °F -6.9 °F 78% 30.25 in - NNW 5.8 mph - N/A   Unknown
4:00 AM -1.1 °F -15.5 °F -7.2 °F 75% 30.25 in - North 8.1 mph - N/A   Unknown
5:00 AM -0.8 °F -17.2 °F -6.9 °F 75% 30.23 in - North 10.4 mph - N/A   Unknown
6:00 AM 1 °F - -6 °F 59% 30.23 in - North 12.7 mph - -  
6:00 AM 1.0 °F -16.6 °F -6.2 °F 72% 30.23 in - North 12.7 mph - N/A   Unknown
7:00 AM -1.8 °F -13.7 °F -8.5 °F 73% 30.23 in - North 5.8 mph - N/A   Unknown
8:00 AM -1.8 °F -17.5 °F -6.7 °F 80% 30.22 in - NNW 9.2 mph - N/A   Unknown
9:00 AM 3.0 °F -14.1 °F -3.5 °F 74% 30.21 in - NNW 12.7 mph - N/A   Unknown
10:00 AM 0.5 °F -15.6 °F -6.2 °F 74% 30.21 in - NNW 10.4 mph - N/A   Unknown
11:00 AM 3.0 °F -9.3 °F -4.2 °F 72% 30.19 in - NNW 6.9 mph - N/A   Unknown
12:00 PM 5 °F - -4 °F 52% 30.19 in - North 2.3 mph - -  
12:00 PM 5.2 °F - -4.2 °F 65% 30.19 in - North 2.3 mph - N/A   Unknown
1:00 PM 2.1 °F -5.4 °F -4.7 °F 73% 30.19 in - NNW 3.5 mph - N/A   Unknown
2:00 PM 1.8 °F -5.8 °F -4.2 °F 76% 30.18 in - NNW 3.5 mph - N/A   Unknown
3:00 PM 3.4 °F -4.0 °F -2.4 °F 77% 30.17 in - NNW 3.5 mph - N/A   Unknown
4:00 PM 5.0 °F -4.1 °F -0.4 °F 78% 30.17 in - West 4.6 mph - N/A   Unknown
5:00 PM 5.4 °F - 0.3 °F 80% 30.16 in - NNW 2.3 mph - N/A   Unknown
6:00 PM 6 °F - 2 °F 75% 30.16 in - North 2.3 mph - -  
6:00 PM 6.1 °F - 1.9 °F 83% 30.16 in - North 2.3 mph - N/A   Unknown
7:00 PM 7.3 °F - 2.1 °F 79% 30.15 in - East 1.2 mph - N/A   Unknown
8:00 PM 7.7 °F - 2.3 °F 79% 30.15 in - SW 2.3 mph - N/A   Unknown
9:00 PM 5.2 °F - 0.5 °F 81% 30.16 in - North 2.3 mph - N/A   Unknown
10:00 PM 6.1 °F -7.8 °F 1.0 °F 80% 30.16 in - NE 9.2 mph - N/A   Unknown
11:00 PM 6.6 °F -10.9 °F 1.0 °F 78% 30.17 in - NNE 15.0 mph - N/A   Unknown